Voltar ao catálogo

STARLINK-3048

AtivoComunicaçõesVLEO
NORAD 49148·PAYLOAD·🇺🇸 United States

Lançado Sep 14, 2021 de Vandenberg Space Force Base

Loading…

Próximas Passagens (próximas 24 horas)

TLE

AtualizadoSource: CelesTrak SupGP

Época: Sep 14, 2026, 20:55 UTC

1 49148C 21082U   26257.87201389 -.00044477  00000+0 -38058-2 0  2579
2 49148  70.0014 158.8326 0002678 269.7176 315.7139 14.97547775    10

Acompanhe STARLINK-3048 em tempo real com AllMySat

Download on the App Store